Terug naar catalogus

FENGYUN 1C DEB

ActiefSSO
NORAD 32093·DEBRIS·🇨🇳 China

Gelanceerd May 10, 1999 vanaf Taiyuan Satellite Launch Center

Loading…

Volgende Passages (komende 24 uur)

TLE

VersSource: Space-Track

Epoch: Sep 13, 2026, 13:58 UTC

1 32093U 99025CQK 26256.58250766  .00000597  00000-0  20543-3 0  9990
2 32093  98.8879 124.4214 0077375 262.4611  96.7780 14.38199997  3535

Volg FENGYUN 1C DEB in realtime met AllMySat

Download on the App Store